Regional Weather Roundup
Issued by NWS

Home | Current Version | Previous Version | Text Only | Print | Product List | Glossary On
Versions: 1 2 3 4 5 6 7 8 9 10 11 12 13 14 15 16 17 18 19 20 21 22 23 24 25 26 27 28 29 30 31 32 33 34 35 36 37 38 39 40 41 42 43 44 45 46 47 48 49 50
000
ASHW40 PHFO 181043
RWRHI

WEATHER ROUNDUP FOR HAWAII
NATIONAL WEATHER SERVICE HONOLULU HI
1200 AM HST SUN FEB 18 2018

THIS IS AN AUTOMATED REPORT THAT HAS NOT BEEN QUALITY CONTROLLED.

NOTE..."FAIR" INDICATES FEW OR NO CLOUDS BELOW 12,000 FEET WITH NO
SIGNIFICANT WEATHER AND/OR OBSTRUCTIONS TO VISIBILITY.

* - THESE SITES REPORT LIMITED FIELDS
# - BUOY DATA PROVIDED BY PACIFIC ISLANDS OCEAN OBSERVING SYSTEM.

HIZ001>004-181100-
KAUAI-NIIHAU-

CITY           SKY/WX    TMP DP  RH WIND       PRES   REMARKS
LIHUE APT      MOCLDY    70  67  90 N8        30.02F
PORT ALLEN*      N/A     64 N/A N/A N7          N/A
POIPU*           N/A     70 N/A N/A NE5         N/A
PRINCEVILLE*     N/A     70 N/A N/A N5G14       N/A
KOKOLE POINT*  NOT AVBL
MOLOAA DAIRY*    N/A     70  66  88 NE1G7       N/A
WAIMEA HTS*      N/A     66  61  82 NW3         N/A
PUU OPAE*        N/A     59  54  82 NE2         N/A
PUU LUA*       NOT AVBL
MAKAHA RIDGE*    N/A     61  61 100 CALM        N/A
$$

HIZ005>011-181100-
OAHU-

CITY           SKY/WX    TMP DP  RH WIND       PRES   REMARKS
HONOLULU       MOCLDY    75  66  73 NW7       29.98S THUNDER
KALAELOA       PTCLDY    72  67  84 NE5       29.99F
KANEOHE MCB    CLOUDY    73  71  93 CALM      29.95F THUNDER
WHEELER FIELD  FAIR      68  68 100 NW6       30.02F
BELLOWS*         N/A    N/A N/A N/A NE12        N/A
KAHUKU*          N/A    N/A N/A N/A SE2         N/A
WHEELER*         N/A    N/A N/A N/A NW5         N/A
WAIANAE HARBOR   N/A    N/A N/A N/A NE3         N/A
DILLINGHAM*    NOT AVBL
KAHUKU TRN*      N/A     68  66  94 NW1G10      N/A
KAWAILOA*        N/A     66  64  94 NE5G13      N/A
KII*             N/A     72  68  88 E6G13       N/A
MAKUA RANGE*     N/A     64  55  72 W10G16      N/A
OAHU FOREST NW   N/A     64  63  94 NW2G15      N/A
SCHOFIELD BRK*   N/A     79  75  89 MISG        N/A
SCHOFIELD S*   NOT AVBL
WAIANAE VLY*   NOT AVBL
KUAOKALA*        N/A     68  64  88 NE16G22     N/A
HONOULIUULI*   NOT AVBL
MOKUOLOE IS*   NOT AVBL
PALEHUA*         N/A     64  61  88 N6G12       N/A
WAIAWA PHB*    NOT AVBL
$$

HIZ012>013-181100-
MOLOKAI-

CITY           SKY/WX    TMP DP  RH WIND       PRES   REMARKS
MOLOKAI AIRPT  CLOUDY    70  68  93 N8        29.98F
KALAUPAPA      NOT AVBL
MAKAPULAPAI*     N/A     70  66  88 SE8         N/A
MOLOKAI 1*     NOT AVBL
PUU ALII*        N/A     68  32  26 NE1         N/A
$$

HIZ016-181100-
KAHOOLAWE-

CITY           SKY/WX    TMP DP  RH WIND       PRES   REMARKS
KAHOOLAWE*     NOT AVBL
HAKIOAWA*        N/A     68  68  99 MISG      30.39S
HONOKANAIA*    NOT AVBL
KANELOA*         N/A     70  66  88 N9G15     30.04F
KEALIALALO*    NOT AVBL
LUA MAKIKA*    NOT AVBL
$$

HIZ014>015-181100-
LANAI-

CITY           SKY/WX    TMP DP  RH WIND       PRES   REMARKS
LANAI CITY     MOCLDY    66  64  94 CALM      30.02F FOG
LANAI 1*       NOT AVBL
$$

HIZ017>028-181100-
MAUI-

CITY           SKY/WX    TMP DP  RH WIND       PRES   REMARKS
KAHULUI        MOCLDY    73  71  93 NE7       29.98F
KAPALUA-W MAUI NOT AVBL
HANA AIRPORT   CLOUDY    68  32  26 CALM      30.01S
HANA*            N/A     70 N/A N/A SW3         N/A
HALEAKALA SUMM   N/A     39  34  81 SW5         N/A
MAALAEA BAY*     N/A     68 N/A N/A N8          N/A
HALEAKALA*     NOT AVBL
KAUPO GAP*     NOT AVBL
KULA 1*          N/A     48  45  87 E3          N/A
$$

HIZ023>026-181100-
BIG ISLAND OF HAWAII COAST AND LOWER SLOPES-

CITY           SKY/WX    TMP DP  RH WIND       PRES   REMARKS
KAILUA KONA    PTCLDY    72  64  76 N7        29.96F
HILO           PTCLDY    69  64  84 S7        29.98F
HONOKAA*         N/A     64 N/A N/A VRB1        N/A
KAWAIHAE MWT*    N/A     73 N/A N/A E3          N/A
KAWAIHAE*        N/A     73 N/A N/A NE3       29.95F
SOUTH POINT*     N/A     66 N/A N/A NW9         N/A
UPOLU AIRPORT* NOT AVBL
KAMUELA*       MOSUNNY   55  55 100 NE6       30.07S
HAKALAU*         N/A     46  46 100 S5          N/A
KALOKO-HONOKO*   N/A     70  64  83 NE1       29.95F
PALI 2*          N/A     61  57  88 SW5G12      N/A
KEALAKOMO*       N/A     72  63  73 N3G9        N/A
KAUPULEHU*       N/A     66  63  88 SE3G9       N/A
KAPAPALA*        N/A     60  59  97 VRB3        N/A
LOWER KAHUKU*    N/A     59  57  94 N2G10       N/A
PUHE CS*         N/A     72  61  68 E3G9        N/A
PUHO CS*         N/A     70  63  79 E2          N/A
PTA KEAMUKU*     N/A     55  54  94 SE2G8       N/A
WAIKOLOA*        N/A     64  61  88 E6          N/A
$$

HIZ027>028-181100-
BIG ISLAND OF HAWAII INTERIOR AND SUMMMITS-

CITY           SKY/WX    TMP DP  RH WIND       PRES   REMARKS
BRADSHAW FIELD PTCLDY    48  46  91 SE5       30.27F
MK VISITOR CEN   N/A     43  30  61 N5          N/A
MAUNA KEA*       N/A     28  19  69 S3          N/A
MAUNA LOA*       N/A    N/A N/A N/A MISG        N/A
MAUNA LOA 1*   NOT AVBL
PTA KIPUKA*      N/A     52  50  93 NW3         N/A
PTA RANGE 17*    N/A     54  50  87 W7          N/A
PTA WEST*        N/A     68  66  94 N3G10       N/A
NENE CABIN*      N/A     46  46 100 NE3G12      N/A
AHUMOA*          N/A     50  43  78 N2G9        N/A
PTA PORTABLE*  NOT AVBL
PUU MALI*        N/A     52 N/A N/A E3G10       N/A
$$

HIC003-181100-
NORTHWEST ISLANDS-

CITY           SKY/WX    TMP DP  RH WIND       PRES   REMARKS
MIDWAY ISLAND  CLOUDY    70  61  73 SE15      30.15S
MIDWAY NOS*      N/A     70 N/A N/A MISG      30.14R
FRENCH FRIGATE NOT AVBL
$$

PHZ110>124-180-181100-
BUOY REPORTS

STATION/POSITION TIME  TEMP    WIND        PRES    WAVE   SWELL
                       AIR SEA DIR/SP/G            HT/PER HT/DIR
                 (UTC) (F)     (DEG/KT/KT) (MB)    (FT/S) (FT/D)
BUOY 51001       1020   76 78   50/ 16/ 17 1014.5
BUOY 51101       0950   69 73   30/ 12/ 16 1018.6R   7/11   7/350
BUOY 51100       NOT AVBL
BUOY 51002       1020   77 77   80/ 12/ 16 1013.6
BUOY 51003       0950   75 77   20/ 12/ 14 1014.5F   6/13   5/330
BUOY 51004       1020   76 77   90/ 14/ 16 1014.2
WAIMEA BAY#      1002      72                N/A     6/12   5/330
MOKAPU POINT#    1004      74                N/A     6/ 9   3/350
LANAI#           NOT AVBL
BARBERS PT 2#    NOT AVBL
PAUWELA#         1030      75                N/A     7/ 8   3/330
HILO#            1027      76                N/A     6/ 8   2/ 70
KANEOHE BAY#     NOT AVBL
KANEOHE BAY 2#   NOT AVBL
HANALEI#         1022      75                N/A     7/13   3/310
KAHULUI HARBOR   1012   72 78  320/  7/  8 1015.2
HONOLULU HARBOR  1018      75  290/  4/  5 1014.4
PEARL HARBOR#    1000      76                N/A     2/ 8
KILO NALU        NOT AVBL
HILO HARBOR      1012   68 74  200/  4/  6 1014.9
MOKUOLOE         0936   72      40/  6/  8 1015.4F
NAWILIWILI       1012   68 77  250/  5/  6 1016.0
WHOTS BUOY       NOT AVBL
BUOY 51028       NOT AVBL
$$

......................KEY........................................
  SKY/WX - SKY CONDITIONS/PRESENT WEATHER
  TMP    - TEMPERATURE IN FAHRENHEIT
  DWPT   - DEWPOINT IN FAHRENHEIT
  RH     - RELATIVE HUMIDITY IN PERCENT
  WIND   - DIRECTION AND SPEED /MPH FOR ISLANDS...KTS FOR BUOYS/
  PRES   - MEAN SEA LEVEL PRESSURE IN INCHES OF HG
  VSB    - VISIBILITY IN MILES
  HX     - HEAT INDEX
  WCI    - WIND CHILL INDEX
  VRB    - VARIABLE WIND DIRECTION
  N/A    - NOT AVAILABLE



USA.gov is the U.S. government's official web portal to all federal, state and local government web resources and services.